#timestamp,LO_Frequency,Hit 
1499684415.1,286046905.6,N
1499684435.9,286046906.6,N
1499684455.7,286046904.5,N
1499684475.5,286046904.5,N
1499684495.4,286046902.4,N
1499684515.2,286046904.7,N
1499684535.0,286046902.3,N
1499684535.9,286046902.3,N
1499684555.8,286046903.4,N
1499684575.6,286046900.6,N
1499684595.4,286046900.9,N
1499684615.3,286046903.5,N
1499684635.1,286046901.1,N
1499684636.0,286046901.1,N
1499684655.8,286046900.7,N
1499684675.7,286046898.9,N
1499684695.5,286046901.6,N
1499684715.3,286046899.2,N
1499684735.1,286046899.9,N
1499684755.9,286046897.4,N
1499684775.7,286046897.6,N
1499684795.5,286046898.8,N
1499684815.4,286046896.0,N
1499684835.2,286046896.1,N
1499684855.0,286046895.9,N
1499684855.9,286046895.9,N
1499684875.8,286046895.9,N
1499684895.6,286046896.7,N
1499684915.4,286046896.4,N
1499684935.3,286046894.5,N
1499684955.1,286046894.9,N
1499684975.8,286046894.6,N
1499684995.7,286046895.0,N
1499685015.5,286046895.3,N
1499685035.3,286046892.8,N
1499685055.2,286046892.9,N
1499685075.9,286046893.3,N
1499685095.7,286046893.2,N
1499685115.6,286046893.4,N
1499685135.4,286046893.6,N
1499685155.2,286046893.6,N
1499685175.0,286046891.0,N
1499685175.9,286046891.0,N
1499685195.8,286046891.2,N
1499685215.6,286046891.5,N
1499685235.4,286046892.2,N
1499685255.3,286046892.3,N
1499685275.1,286046892.0,N
1499685295.8,286046890.0,N
1499685315.7,286046890.5,N
1499685335.5,286046888.0,N
1499685355.3,286046888.3,N
1499685375.2,286046886.1,N
1499685395.9,286046889.2,N
1499685415.7,286046886.6,N
1499685435.6,286046886.3,N
1499685455.4,286046886.8,N
1499685475.2,286046886.3,N
1499685495.0,286046885.0,N
1499685495.9,286046885.0,N
1499685515.8,286046887.5,N
1499685535.6,286046884.6,N
1499685555.4,286046885.0,N
1499685575.3,286046887.6,N
1499685595.1,286046885.5,N
1499685615.8,286046885.4,N
1499685635.7,286046884.7,N
1499685655.5,286046885.4,N
1499685675.3,286046883.4,N
1499685695.2,286046883.5,N
1499685715.9,286046881.9,N
1499685735.7,286046882.4,N
1499685755.6,286046882.4,N
1499685775.4,286046880.3,N
1499685795.2,286046880.5,N
1499685815.1,286046878.1,N
1499685816.0,286046878.1,N
1499685835.8,286046880.7,N
1499685855.6,286046880.0,N
1499685875.5,286046880.7,N
1499685895.3,286046881.1,N
1499685915.1,286046879.0,N
1499685935.8,286046879.2,N
1499685955.7,286046876.7,N
1499685975.5,286046876.8,N
1499685995.3,286046877.1,N
1499686015.2,286046877.3,N
1499686035.9,286046877.6,N
1499686055.7,286046876.2,N
1499686075.6,286046873.3,N
1499686095.4,286046873.9,N
1499686115.2,286046876.3,N
1499686135.1,286046873.7,N
1499686136.0,286046873.7,N
1499686155.8,286046873.8,N
1499686175.6,286046871.8,N
1499686195.5,286046874.3,N
1499686215.3,286046874.8,N
1499686235.1,286046871.8,N
1499686255.9,286046871.7,N
1499686275.7,286046871.7,N
1499686295.5,286046872.1,N
1499686315.3,286046872.0,N
1499686335.2,286046872.3,N
1499686355.0,286046872.5,N
1499686355.9,286046872.5,N
1499686375.7,286046872.7,N
1499686395.6,286046872.8,N
1499686415.4,286046872.7,N
1499686435.2,286046871.1,N
1499686455.1,286046871.1,N
1499686456.0,286046871.1,N
1499686475.8,286046871.1,N
1499686495.6,286046871.5,N
1499686515.5,286046869.0,N
1499686535.3,286046868.9,N
1499686555.1,286046869.4,N
1499686575.9,286046868.9,N
1499686595.7,286046870.0,N
1499686615.5,286046867.2,N
1499686635.4,286046867.1,N
1499686655.2,286046866.9,N
1499686675.0,286046867.5,N
1499686675.9,286046867.5,N
1499686695.8,286046867.5,N
1499686715.6,286046865.3,N
1499686735.4,286046865.4,N
1499686755.2,286046865.8,N
1499686775.1,286046865.4,N
1499686776.0,286046865.4,N
1499686795.8,286046866.6,N
1499686815.6,286046864.1,N
1499686835.5,286046863.7,N
1499686855.3,286046864.3,N
1499686875.1,286046863.7,N
1499686895.9,286046866.8,N
1499686915.7,286046866.4,N
1499686935.5,286046863.8,N
1499686955.4,286046865.2,N
1499686975.2,286046864.0,N
1499686995.0,286046866.4,N
1499686995.9,286046866.4,N
1499687015.8,286046863.9,N
1499687035.6,286046864.4,N
1499687055.4,286046864.4,N
1499687075.3,286046862.2,N
1499687095.1,286046862.9,N
1499687096.0,286046862.9,N
1499687115.8,286046863.3,N
1499687135.6,286046862.9,N
1499687155.5,286046863.1,N
1499687175.3,286046863.6,N
1499687195.1,286046860.7,N
1499687215.9,286046861.4,N
1499687235.7,286046861.5,N
1499687255.5,286046861.5,N
1499687275.4,286046861.2,N
1499687295.2,286046861.7,N
1499687315.0,286046862.0,N
1499687315.9,286046862.0,N
1499687335.8,286046860.1,N
1499687355.6,286046857.4,N
1499687375.4,286046860.4,N
1499687395.3,286046857.4,N
1499687415.1,286046857.5,N
1499687416.0,286046857.5,N
1499687435.8,286046857.6,N
1499687455.7,286046857.7,N
1499687475.5,286046858.7,N
1499687495.3,286046858.1,N
1499687515.1,286046856.3,N
1499687535.9,286046856.4,N
1499687555.7,286046856.9,N
1499687575.5,286046856.7,N
1499687595.4,286046854.3,N
1499687615.2,286046854.7,N
1499687635.0,286046855.0,N
1499687635.9,286046855.0,N
1499687655.8,286046855.2,N
1499687675.6,286046855.3,N
1499687695.4,286046855.3,N
1499687715.3,286046855.5,N
1499687735.1,286046853.5,N
1499687736.0,286046853.5,N
1499687755.8,286046853.7,N
1499687775.7,286046851.2,N
1499687795.5,286046851.5,N
1499687815.3,286046851.7,N
1499687835.1,286046851.9,N
1499687855.9,286046849.3,N
1499687875.7,286046850.2,N
1499687895.5,286046849.3,N
1499687915.4,286046849.8,N
1499687935.2,286046849.7,N
1499687955.0,286046849.3,N
1499687955.9,286046849.3,N
1499687975.8,286046852.4,N
1499687995.6,286046852.2,N
